Flag for Spain Weather past 2 weeks in Huelva, Spain

Now
84 °F

Sunny.


Feels Like: 90 °F
Forecast: 70 / 98 °F
Wind: 9 mph from West

Location: Rota Airport

Current Time: Jul 6, 2015 at 1:41:20 PM

Latest Report: Jul 6, 2015 at 1:00 PM


Visibility: 10 mi

Pressure: 30.01 "Hg

Humidity: 66%

Dew point: 72 °F

Location of HuelvaLocation

Historic Weather in Huelva — Graph

°F

Huelva temperature yesterday

Maximum temperature yesterday: 93 °F (at 5:00 PM)
Minimum temperature yesterday: 72 °F (at 7:00 AM)
Average temperature yesterday: 82 °F

Past Weeks' High & Low Weather Summary

 TemperatureHumidityPressure
High102 °F (Jun 27, 5:00 PM)94% (Jun 29, 7:00 AM)30.12 "Hg (Jun 29, 7:00 AM)
Low61 °F (Jun 24, 7:00 AM)17% (Jun 27, 5:00 PM)29.95 "Hg (Jun 27, 7:00 PM)
Average76 °F66%30.04 "Hg
* Reported Jun 21 12:00 Noon — Jul 6 12:00 Noon, Huelva, Weather by CustomWeather, © 2015

Note: Actual official high and low records may vary slightly from our data, if they occured in-between our weather recording intervals... More about our weather records

Advertising

Huelva weather history for previous 24 hours

 ConditionsComfort  
Time TempWeatherWind HumidityBarometerVisibility
12:00 PM
Mon, Jul 6
84 °FSunny.3 mph70%30.01 "Hg10 mi
11:00 AM86 °FSunny.1 mph52%30.01 "Hg10 mi
10:00 AM84 °FPassing clouds.3 mph51%30.01 "HgN/A
9:00 AM81 °FSunny.1 mph62%30.01 "Hg10 mi
8:00 AM73 °FClear.No wind78%29.98 "Hg10 mi
7:00 AM72 °FClear.2 mph83%29.98 "Hg10 mi
6:00 AM73 °FClear.No wind78%29.98 "Hg10 mi
5:00 AM75 °FClear.No wind74%29.98 "Hg10 mi
4:00 AM73 °FClear.1 mph78%29.98 "Hg10 mi
3:00 AM75 °FClear.1 mph78%29.98 "Hg10 mi
2:00 AM77 °FClear.2 mph79%29.98 "Hg10 mi
1:00 AM77 °FClear.No wind79%30.01 "Hg10 mi
12:00 AM79 °FClear.No wind79%29.98 "Hg10 mi
11:00 PM
Sun, Jul 5
79 °FClear.5 mph79%29.98 "Hg10 mi
10:00 PM82 °FSunny.2 mph66%29.98 "Hg10 mi
9:00 PM84 °FPassing clouds.5 mph58%29.95 "HgN/A
8:00 PM88 °FPassing clouds.8 mph52%29.95 "HgN/A
7:00 PM90 °FPassing clouds.10 mph41%29.95 "HgN/A
6:00 PM91 °FPassing clouds.9 mph44%29.95 "HgN/A
5:00 PM93 °FPassing clouds.9 mph39%29.98 "HgN/A
4:00 PM90 °FPassing clouds.10 mph46%29.98 "HgN/A
3:00 PM86 °FPassing clouds.9 mph55%30.01 "HgN/A
2:00 PM84 °FPassing clouds.8 mph62%30.01 "HgN/A
1:00 PM84 °FPassing clouds.8 mph58%30.04 "HgN/A
Weather by CustomWeather, © 2015

See weather overviewHow to use our weather pages